Time,TemperatureF,DewpointF,PressureIn,WindDirection,WindDirectionDegrees,WindSpeedMPH,WindSpeedGustMPH,Humidity,HourlyPrecipIn,Conditions,Clouds,dailyrainin,SolarRadiationWatts/m^2,SoftwareType,DateUTC
2013-04-02 00:00:00,26.0,19.0,29.93,West,264,6.0,-999.0,75,-99.99,,,-99.99,0.070000,,2013-04-02 04:00:00,
2013-04-02 00:53:00,26.0,19.0,29.93,West,264,6.0,-999.0,75,-99.99,,,-99.99,0.070000,,2013-04-02 04:53:00,
2013-04-02 04:00:00,25.0,18.0,29.93,West,261,7.0,-999.0,75,-99.99,,,-99.99,0.140000,,2013-04-02 08:00:00,
2013-04-02 04:52:00,25.0,18.0,29.93,West,261,7.0,-999.0,75,-99.99,,,-99.99,0.140000,,2013-04-02 08:52:00,
2013-04-02 05:00:00,24.0,15.0,29.94,West,267,8.0,-999.0,67,-99.99,,,-99.99,0.150000,,2013-04-02 09:00:00,
2013-04-02 05:53:00,24.0,15.0,29.94,West,267,8.0,-999.0,67,-99.99,,,-99.99,0.150000,,2013-04-02 09:53:00,
2013-04-02 06:00:00,24.0,15.0,29.95,West,259,8.0,-999.0,69,-99.99,,,-99.99,0.140000,,2013-04-02 10:00:00,
2013-04-02 06:53:00,24.0,15.0,29.95,West,259,8.0,-999.0,69,-99.99,,,-99.99,0.140000,,2013-04-02 10:53:00,
2013-04-02 07:00:00,23.0,14.0,29.97,WSW,253,8.0,-999.0,67,-99.99,,,-99.99,2.510000,,2013-04-02 11:00:00,
2013-04-02 07:53:00,23.0,14.0,29.97,WSW,253,8.0,-999.0,67,-99.99,,,-99.99,2.510000,,2013-04-02 11:53:00,
2013-04-02 08:00:00,24.0,15.0,29.98,WSW,257,9.0,-999.0,68,-99.99,,,-99.99,72.809998,,2013-04-02 12:00:00,
2013-04-02 08:53:00,24.0,15.0,29.98,WSW,257,9.0,-999.0,68,-99.99,,,-99.99,72.809998,,2013-04-02 12:53:00,
2013-04-02 09:00:00,26.0,15.0,30.00,West,259,9.0,-999.0,63,-99.99,,,-99.99,293.799988,,2013-04-02 13:00:00,
2013-04-02 09:52:00,26.0,15.0,30.00,West,259,9.0,-999.0,63,-99.99,,,-99.99,293.799988,,2013-04-02 13:52:00,
2013-04-02 10:00:00,28.0,17.0,30.00,West,265,12.0,-999.0,61,-99.99,,,-99.99,470.899994,,2013-04-02 14:00:00,
2013-04-02 10:52:00,28.0,17.0,30.00,West,265,12.0,-999.0,61,-99.99,,,-99.99,470.899994,,2013-04-02 14:52:00,
2013-04-02 11:00:00,27.0,15.0,30.02,West,275,11.0,-999.0,58,-99.99,,,-99.99,315.100006,,2013-04-02 15:00:00,
2013-04-02 11:58:00,27.0,15.0,30.02,West,275,11.0,-999.0,58,-99.99,,,-99.99,315.100006,,2013-04-02 15:58:00,
2013-04-02 12:00:00,29.0,15.0,30.02,West,274,12.0,-999.0,54,-99.99,,,-99.99,446.899994,,2013-04-02 16:00:00,
2013-04-02 12:54:00,29.0,15.0,30.02,West,274,12.0,-999.0,54,-99.99,,,-99.99,446.899994,,2013-04-02 16:54:00,
2013-04-02 13:00:00,28.0,17.0,30.02,West,273,13.0,-999.0,63,-99.99,,,-99.99,505.000000,,2013-04-02 17:00:00,
2013-04-02 13:57:00,28.0,17.0,30.02,West,273,13.0,-999.0,63,-99.99,,,-99.99,505.000000,,2013-04-02 17:57:00,
2013-04-02 14:00:00,32.0,15.0,30.00,West,260,12.0,-999.0,49,-99.99,,,-99.99,687.799988,,2013-04-02 18:00:00,
2013-04-02 14:57:00,32.0,15.0,30.00,West,260,12.0,-999.0,49,-99.99,,,-99.99,687.799988,,2013-04-02 18:57:00,
2013-04-02 15:00:00,31.0,17.0,30.00,West,261,13.0,-999.0,55,-99.99,,,-99.99,552.500000,,2013-04-02 19:00:00,
2013-04-02 15:57:00,31.0,17.0,30.00,West,261,13.0,-999.0,55,-99.99,,,-99.99,552.500000,,2013-04-02 19:57:00,
2013-04-02 16:00:00,33.0,17.0,30.00,West,266,14.0,-999.0,52,-99.99,,,-99.99,508.000000,,2013-04-02 20:00:00,
2013-04-02 16:55:00,33.0,17.0,30.00,West,266,14.0,-999.0,52,-99.99,,,-99.99,508.000000,,2013-04-02 20:55:00,
2013-04-02 22:00:00,28.0,21.0,30.09,West,263,8.0,-999.0,73,-99.99,,,-99.99,0.050000,,2013-04-03 02:00:00,
2013-04-02 22:53:00,28.0,21.0,30.09,West,263,8.0,-999.0,73,-99.99,,,-99.99,0.050000,,2013-04-03 02:53:00,
2013-04-02 23:00:00,28.0,21.0,30.08,WSW,250,6.0,-999.0,76,-99.99,,,-99.99,0.080000,,2013-04-03 03:00:00,
2013-04-02 23:54:00,28.0,21.0,30.08,WSW,250,6.0,-999.0,76,-99.99,,,-99.99,0.080000,,2013-04-03 03:54:00,